Other Public Products
Issued by NWS Grand Forks, ND

Home | Current Version | Previous Version | Text Only | Print | Product List | Glossary On
Versions: 1 2 3 4 5 6 7 8 9 10 11 12 13 14 15 16 17 18 19 20 21 22 23 24 25 26 27 28 29 30 31 32 33 34 35 36 37 38 39 40 41 42 43 44 45 46 47 48 49 50
726
FPUS83 KFGF 241031
OPUFGF
PRAIRIE TO PINES WEATHER ROUNDUP
NATIONAL WEATHER SERVICE EASTERN NORTH DAKOTA/GRAND FORKS ND
400 AM CST WED JAN 24 2018

 **SATELLITE DATA USED TO AUGMENT SKY COVER AT AUTOMATED STATIONS**
 *****  WEATHER ACROSS EASTERN NORTH DAKOTA  *****

CITY           SKY/WX    TMP DP  RH WIND       PRES   REMARKS
GRAND FORKS    CLOUDY    22  19  89 SW5       30.13F WCI  16
GRND FORKS AFB CLOUDY    24  18  79 SW5       30.13  WCI  18
GRND FORKS NWS NOT AVBL
BUXTON           N/A     23  22  97 S3          N/A
DEVILS LAKE    CLOUDY    19  18  93 SW9       30.09S FOG     WCI   9
FARGO          CLOUDY    25  18  74 W5        30.16F WCI  19
WAHPETON ARPT  CLOUDY    23  19  86 CALM      30.18S
$$

 *****  WEATHER ACROSS CENTRAL AND WESTERN NORTH DAKOTA  *****

CITY           SKY/WX    TMP DP  RH WIND       PRES   REMARKS
JAMESTOWN      FOG       18  18 100 S10       30.11F VSB 1/2 WCI   6
BISMARCK       FOG        6   4  91 E6        30.11F VSB 1   WCI  -4
MINOT          FAIR      14  10  84 SW5       30.01F WCI   6
MINOT AFB      FAIR       7   3  85 CALM      30.00F
GARRISON         N/A      2  -2  83 CALM      30.04F
WILLISTON      FAIR      12  10  92 CALM      30.02F
DICKINSON      FAIR      21  14  74 W8        30.01F WCI  11
HETTINGER      FAIR      15  11  83 CALM      30.07F
$$

 *****  OTHER OBSERVATIONS NORTHEAST NORTH DAKOTA  *****

CITY           SKY/WX    TMP DP  RH WIND       PRES   REMARKS
WALHALLA       FAIR      23  23 100 SW8       30.09F WCI  14
LANGDON        CLOUDY    21  21 100 SW12      30.06F FOG     WCI   9
CAVALIER         N/A     23  21  93 W9        30.10S WCI  13
GRAFTON        CLOUDY    25  21  86 SW8       30.14S WCI  16
CANDO          CLOUDY    19  19 100 S7        30.08F FOG     WCI  10
FORT TOTTEN      N/A     18  17  96 S3        29.95S
ROLLA          FOG       18  18 100 SW15      30.02F VSB 1/4 WCI   3
RUGBY          FOG       16  16 100 S8        30.05F VSB 1/4 WCI   5
 ***** THE ABOVE OBSERVATIONS ARE NON NWS ARE NOT QUALITY
        CONTROLLED AND MAY MIS-REPORT RAIN FOR SNOW...
$$

 *****  OTHER OBSERVATIONS SOUTHEAST NORTH DAKOTA *****

CITY           SKY/WX    TMP DP  RH WIND       PRES   REMARKS
COOPERSTOWN    CLOUDY    21  19  93 S7        30.12S WCI  13
VALLEY CITY    CLOUDY    21  21 100 SW7       30.15S WCI  13
OAKES            N/A     18  18 100 SW6       30.17S WCI   9
GWINNER          N/A     21  19  93 CALM      30.17R
SHEYENNE NWR     N/A     22  20  93 CALM      29.95S
BUFFALO          N/A     22  18  82 E3          N/A
WYNDMERE       NOT AVBL
 ***** THE ABOVE OBSERVATIONS ARE NON NWS ARE NOT QUALITY
       CONTROLLED AND MAY MIS-REPORT RAIN FOR SNOW...
$$

  *****  WEATHER ACROSS NORTHERN MINNESOTA  *****

CITY           SKY/WX    TMP DP  RH WIND       PRES   REMARKS
FLAG ISLAND    FLURRIES  16  12  86 S8        30.08S WCI   5
WARROAD        CLOUDY    19  16  86 SW6       30.10S WCI  11
ROSEAU         CLOUDY    21  18  86 SW7       30.09F WCI  13
HALLOCK        CLOUDY    25  21  86 SW12      30.10S WCI  14
THF RVR FALLS  CLOUDY    20  18  92 SW8       30.12F WCI  10
HALSTAD        NOT AVBL
FOSSTON        CLOUDY    19  18  93 SW7       30.13S WCI  10
BAUDETTE       FLURRIES  16  14  92 SE6       30.09F WCI   7
WASKISH        CLOUDY    18  18 100 SW3       30.12R
CROOKSTON      CLOUDY    21  18  86 SW6       30.15S WCI  14
$$
  *****  WEATHER ACROSS CENTRAL AND WEST MINNESOTA  *****

CITY           SKY/WX    TMP DP  RH WIND       PRES   REMARKS
BEMIDJI        CLOUDY    19  17  91 W5        30.11S WCI  12
PARK RAPIDS    CLOUDY    20  16  84 W6        30.12S WCI  12
WADENA         CLOUDY    19  19 100 NW6       30.14S FOG     WCI  11
DETROIT LAKES  CLOUDY    23  19  86 NW6       30.14F WCI  16
MOORHEAD       CLOUDY    23  18  80 CALM      30.17S
FERGUS FALLS   CLOUDY    21  18  86 W5        30.17R WCI  15
ELBOW LAKE     CLOUDY    20  19  94 CALM      30.17S
MORRIS MN      CLOUDY    21  19  93 N6        30.17S FOG     WCI  14
STAPLES        CLOUDY    19  19 100 CALM      30.14F
WHEATON        NOT AVBL
$$
  *****  WEATHER ELSEWHERE ACROSS MINNESOTA  *****

CITY           SKY/WX    TMP DP  RH WIND       PRES   REMARKS
DULUTH         CLOUDY     9   2  73 S3        30.12F
INTRNTL FALLS  LGT SNOW  11   3  70 E5        30.11F WCI   3
ELY            CLOUDY     5  -4  66 CALM      30.13S
CLOQUET        CLOUDY    10   3  72 CALM      30.13S
BRAINERD       CLOUDY    18  16  92 CALM      30.16S FOG
HIBBING        CLOUDY     8   1  73 CALM      30.12F
ALEXANDRIA     CLOUDY   N/A N/A N/A MISG      30.15F
SAINT CLOUD    CLOUDY    19  17  92 CALM      30.18S
MINNEAPOLIS    MOCLDY    10   9  95 CALM      30.21R
$$

  *****  WEATHER ACROSS SOUTH DAKOTA  *****

CITY           SKY/WX    TMP DP  RH WIND       PRES   REMARKS
SIOUX FALLS    FOG       20  17  88 SW3       30.20S VSB 1/2
BROOKINGS      FOG       17  15  92 S5          N/A  VSB 1/4 WCI  10
WATERTOWN      FOG       19  19 100 SE3       30.14S VSB 1/2
HURON          FAIR      12  10  92 CALM      30.19S
SISSETON         N/A     21  18  88 CALM      30.17F
ABERDEEN       FOG       19  17  92 CALM      30.19S VSB 1/4
MITCHELL       FAIR      18  16  92 SW6       30.21F WCI  10
PIERRE         FAIR      22  20  92 W7        30.15S WCI  13
MOBRIDGE       FAIR      17  13  84 SE5       30.10S WCI  10
RAPID CITY     FAIR      17  11  77 CALM      30.07F
$$

  *****  SOME WEATHER IN NEARBY STATES *****

CITY           SKY/WX    TMP DP  RH WIND       PRES   REMARKS
GLASGOW MT     FAIR      14  10  84 E13       29.94F WCI   0
GREAT FALLS MT FAIR      35  17  47 S17       29.87F WCI  25
CHEYENNE WY    FAIR      19  11  70 S14       30.14F WCI   6
SCOTTSBLUFF NE FAIR      11   6  81 CALM      30.18F
OMAHA NE       FAIR      19  16  88 CALM      30.26S
DES MOINES IA  CLOUDY    26  21  81 W5        30.24F WCI  20
DAVENPORT IA   CLOUDY    25  18  74 W10       30.25R WCI  15
CHICAGO IL     CLOUDY    28  20  71 NW8       30.19R WCI  20
EAU CLAIRE WI  FAIR      10   8  92 CALM      30.20S
LA CROSSE WI   FAIR      19  16  88 CALM      30.23S
$$

  *****  SOME NATIONAL WEATHER *****

CITY           SKY/WX    TMP DP  RH WIND       PRES   REMARKS
LA GUARDIA NY  MOCLDY    44  28  53 W13G20    29.78R
RALEIGH NC     FAIR      39  28  64 CALM      30.07R
ATLANTA GA     FAIR      36  29  75 NW12      30.16S
NEW ORLEANS LA CLOUDY    47  36  65 N3        30.31R
OKLAHOMA CITY  FAIR      28  16  60 NW6       30.39R WCI  22
ALBUQUERQUE NM FAIR      25  12  58 SW3       30.39R
SALT LAKE CITY FAIR      30  22  72 SE7       30.28S WCI  23
LOS ANGELES CA FAIR      55  29  36 NE9       30.12F
BOISE ID       FAIR      43  25  49 SE12      30.06F
SEATTLE WA     RAIN      47  45  93 SE8       29.71R FOG
$$

*** WEATHER ACROSS MANITOBA...SASKATCHEWAN AND ONTARIO ***
                ***ONTARIO***

CITY           SKY/WX    TMP DP  RH WIND       PRES   REMARKS
GERALDTON      MOCLDY   -15 -20  76 VRB2      30.24S
THUNDER BAY    CLOUDY     1  -6  71 NW3       30.26S
SIOUX LOOKOUT  CLOUDY     3  -4  72 S6        30.12F WCI  -8
TORONTO        MOCLDY    18   9  68 NW24G35   30.02R WCI   0
BIG TROUT LK   CLOUDY   -15 -20  76 SE5       30.24F WCI -27
PICKLE LAKE    NOT AVBL
DRYDEN         FLURRIES   7   1  78 SE7       30.09F WCI  -5
KENORA         FLURRIES  12   9  85 S9        30.06R WCI   0
$$
                *** MANITOBA***

CITY           SKY/WX    TMP DP  RH WIND       PRES   REMARKS
BRANDON        CLOUDY    23  21  93 W7        30.04S WCI  15
DAUPHIN        FLURRIES   7   3  85 E7        30.12R WCI  -5
ISLAND LAKE    FLURRIES   3  -2  78 E7        30.11S WCI  -9
PILOT MOUND      N/A     21  19  93 SW10        N/A  WCI  10
THE PAS        CLEAR    -11 -17  77 N3        30.14S
THOMPSON       CLEAR    -20 -27  69 NE6       30.19S WCI -36
WINNIPEG       FLURRIES  25  21  86 W13       30.06F WCI  13
CHURCHILL      MOCLDY   -26 -33  68 W3        30.40S FOG
GILLAM         CLEAR    -26 -31  75 NE6       30.26F WCI -42
$$
                ***SASKATCHEWAN***

CITY           SKY/WX    TMP DP  RH WIND       PRES   REMARKS
ESTEVAN        MOCLDY    10   7  85 SW8       29.99F WCI  -1
KINDERSLEY     CLOUDY    16  14  93 E13       29.83F WCI   2
LLOYDMINSTER   CLOUDY    16  14  93 SE15      29.84F FOG     WCI   1
PRINCE ALBERT  FLURRIES   9   3  78 E8        30.07F WCI  -4
REGINA         CLOUDY    12   9  85 E7        29.98S WCI   2
YORKTON        CLOUDY    14  12  92 NE8       30.02F WCI   3
N. BATTLEFORD  CLOUDY    18  16  93 E15G22    29.95F FO



USA.gov is the U.S. government's official web portal to all federal, state and local government web resources and services.